Historyczne dane pomiarowe

Dodano dane terminowe – wersja testowa.

Dane z okresu 1951-2019

Wersja bazy: 1.34 [2019-03-16, lista zmian], aktualizacja planowana na 2019-04-15

Dane meteo z obszaru Polski uzyskane na podstawie danych udostępnionych przez Instytut Meteorologii i Gospodarki Wodnej – Państwowy Instytut Badawczy.

 

Wybierz Datę:    

       

TemperaturaWilgotnośćWiatrCiśnienieOpadyŚniegCzas trwania zjawisk
 Stacja t tx tn tng RH VA  wxwx mslp ppp RRR   cm mm wxwxwxwxwxwxwx
1956-11-09 -5.7 -4.0-10.2 -7.6 77.8- 6.7 1.0---- 0.0------------
1956-11-08 -4.9 -1.8 -7.4 -5.6 68.0- 0.7 3.3---- 0.0------------
1956-11-07 -1.8 0.9 -4.8 -2.9 71.5- 5.0 6.0---- 0.0------------
1956-11-06 0.5 4.2 -1.2 -1.5 85.0- 3.0 5.3---- 0.0------------
1956-11-05 0.8 4.1 -7.3 -8.3 88.5- 6.0 4.0---- 0.9------------
1956-11-04 -2.4 2.4 -7.5 -7.7 83.5- 1.0 0.7---- 0.0------------
1956-11-03 -1.6 -0.5 -4.5 -4.9 90.0- 8.0 0.7---- 0.0------------
1956-11-02 -1.3 2.5 -4.1 -1.8 80.5- 3.3 1.3---- 0.0-- 1---------
1956-11-01 -0.8 1.2 -7.4 -8.4 64.0- 7.7 4.7---- 2.7------------
1956-10-31 -5.8 -2.8 -7.8 -5.6 76.3- 2.7 2.7---- 0.0------------
1956-10-30 -1.4 5.1 -3.8 -1.5 89.0- 8.0 3.3---- 1.4------------
1956-10-29 6.7 11.1 4.0 3.6 85.3- 5.7 2.3---- 1.6------------
1956-10-28 9.5 10.4 7.8 8.4 95.8- 8.0 4.0---- 15.3------------
1956-10-27 7.4 10.7 2.3 1.4 95.3- 5.3 2.7---- 1.2------------
1956-10-26 7.4 14.4 1.5 0.3 91.8- 0.7 1.3---- 0.0------------
1956-10-25 9.3 16.4 3.7 3.6 88.5- 0.0 1.0---- 0.0------------
1956-10-24 10.1 14.3 1.5 1.7 84.8- 7.0 1.7---- 0.0------------
1956-10-23 9.8 11.0 7.5 2.0 77.5- 8.0 4.0---- 0.0------------
1956-10-22 9.9 12.5 8.7 8.5 90.3- 8.0 2.7---- 0.0------------
1956-10-21 11.7 15.0 6.0 5.7 88.3- 6.0 1.7---- 0.0------------
1956-10-20 8.2 12.4 4.5 2.3 92.0- 6.3 1.0---- 0.0------------
1956-10-19 11.1 12.2 7.0 6.4 92.0- 8.0 3.7---- 2.6------------
1956-10-18 7.9 13.2 -1.4 -4.7 78.5- 6.7 1.0---- 0.9------------
1956-10-17 3.1 10.6 -3.0 -3.4 82.5- 1.7 0.3---- 0.0------------
1956-10-16 4.1 7.9 0.4 0.8 82.3- 4.7 2.3---- 0.0------------
1956-10-15 6.4 9.8 1.7 1.3 78.5- 3.3 4.3---- 0.0------------
1956-10-14 7.7 10.2 5.4 6.4 73.0- 6.3 7.7---- 0.6------------
1956-10-13 9.9 11.6 6.8 6.3 76.3- 8.0 7.3---- 14.1------------
1956-10-12 9.5 10.6 7.1 5.9 84.5- 8.0 5.0---- 0.0------------
1956-10-11 6.8 9.8 -2.5 -2.0 82.8- 7.3 2.3---- 0.1------------
1956-10-10 2.3 7.0 -1.1 -1.5 85.3- 1.7 3.3---- 0.0------------
1956-10-09 5.9 10.4 -1.0 -2.3 80.0- 4.7 2.3---- 0.4------------
1956-10-08 6.0 10.2 3.2 2.6 82.5- 7.0 1.7---- 0.0------------
1956-10-07 5.8 10.3 0.4 0.0 85.8- 8.0 7.7---- 9.1------------
1956-10-06 9.9 12.7 7.2 6.6 96.3- 8.0 2.3---- 22.9------------
1956-10-05 9.7 13.8 6.3 4.5 92.3- 4.7 2.0---- 0.4------------
1956-10-04 8.3 14.1 4.7 2.7 95.5- 7.3 1.0---- 6.9------------
1956-10-03 16.5 23.7 12.5 13.3 70.8- 5.0 4.7---- 0.0------------
1956-10-02 17.6 24.7 9.7 9.6 74.8- 0.0 2.3---- 0.0------------
1956-10-01 13.5 21.7 4.4 6.6 85.0- 2.0 0.7---- 0.0------------
1956-09-30 12.2 18.6 8.3 11.2 82.8- 2.0 1.7---- 0.0------------
1956-09-29 16.9 21.0 9.4- 80.5- 7.3 3.0---- 0.0------------
1956-09-28 13.9 20.9 9.9- 86.0- 4.0 2.0---- 0.0------------
1956-09-27 13.6 21.7 4.0- 66.0- 2.0 2.7---- 0.0------------
1956-09-26 11.5 21.1 2.8- 73.0- 0.0 1.3---- 0.0------------
1956-09-25 9.4 17.2 1.3- 71.3- 0.7 1.7---- 0.0------------
1956-09-24 6.6 12.5 1.0- 73.3- 0.0 2.3---- 0.0------------
1956-09-23 9.1 14.3 6.0- 72.0- 3.3 2.3---- 0.0------------
1956-09-22 11.2 18.1 2.4- 78.5- 1.3 0.7---- 0.0------------
1956-09-21 9.5 17.6 1.8- 86.0- 0.7 0.3---- 0.0------------
1956-09-20 9.0 15.9 1.7- 80.3- 5.0 1.0---- 0.0------------
1956-09-19 7.7 14.3 0.3- 88.3- 2.0 0.7---- 0.0------------
1956-09-18 8.1 11.7 5.2- 85.0- 5.3 2.7---- 0.3------------
1956-09-17 7.8 13.1 5.0- 85.5- 6.7 1.7---- 0.8------------
1956-09-16 10.1 12.6 4.3- 77.8- 6.7 3.0---- 0.0------------
1956-09-15 10.2 14.6 2.8- 79.8- 2.3 3.0---- 0.0------------
1956-09-14 7.7 12.2 5.2- 83.8- 4.0 3.0---- 0.0------------
1956-09-13 9.7 13.3 6.0- 83.8- 5.7 4.3---- 0.6------------
1956-09-12 11.1 12.9 9.4- 87.5- 7.3 3.0---- 17.0------------
1956-09-11 12.1 13.4 10.9- 96.0- 8.0 2.7---- 18.4------------
1094.8 ms

 

Źródłem pochodzenia danych jest Instytut Meteorologii i Gospodarki Wodnej – Państwowy Instytut Badawczy. Dane Instytutu Meteorologii i Gospodarki Wodnej – Państwowego Instytutu Badawczego zostały przetworzone.

Dane źródłowe można odnaleźć na stronie https://dane.imgw.pl